Location: Davayat
(45.9471°N, 3.1105°E)
Time: 14:33:34
(UTC+00:00)

COSMO-SKYMED 1 - Pass Details

Date: 01 December 2020
Orbit: 621 x 623 km, 97.9° (Epoch: 27 January)

Event Time Altitude Azimuth Distance (km) Brightness Sun altitude
Exits shadow 17:22:42 14° 35° (NE) 1,752 4.4 -13.2°
Maximum altitude 17:25:59 34° 97° (E) 1,025 3.2 -13.8°
Drops below altitude 10° 17:29:57 10° 163° (SSE) 1,989 5.2 -14.4°
Sets 17:32:17 0° 172° (S) 2,890 6.1 -14.8°
